ロニオス-ヒル彗星

P/2005 XA54 ( LONEOS-Hill )

English version
Home page
Updated on June 26, 2006

---------------------------------------------------------------------

・ プロフィール

発見日 2005年12月4日、2006年1月6日
発見光度 18.5等、17.1等
発見者 Lowell Observatory Near-Earth Object Search, Rik Hill (Catalina Sky Surve)

・ 写真集

・ 軌道要素

Epoch 2006 Mar. 6.0 TT = JDT 2453800.5
T 2006 Mar. 7.90462 TT                                  MPC
q   1.7776711            (2000.0)            P               Q
n   0.06488973     Peri.   15.35863     -0.93064444     -0.32413761
a   6.1331759      Node   144.24835     +0.29759669     -0.94046473
e   0.7101549      Incl.   16.89605     +0.21292521     -0.10227852
P  15.19

・ 星図

・ 光度変化

        m1 =  13.3 + 5 logΔ +  14.0 log r          [   ,-46]  (              〜2006年 1月20日)
        m1 = -22   + 5 logΔ + 150   log r(t + 10)  [-46,-10]  (2006年 1月20日〜2006年 2月25日)
        m1 =   5.5 + 5 logΔ +  40   log r(t + 10)  [-10, 36]  (2006年 2月25日〜2006年 4月12日)
        m1 =  12.5 + 5 logΔ +  14.0 log r          [ 36,   ]  (2006年 4月12日〜              )

---------------------------------------------------------------------

軌道要素はM.P.E.C. 2006-D05に掲載されたものです。
星図は StellaNavigator Ver.2.0 for Windows (アストロアーツ 編著 / アスキー出版局刊) で作成したものです。
光度グラフはComet for Windowsで作成したものです。

---------------------------------------------------------------------

Copyright(C) Seiichi Yoshida (comet@aerith.net). All rights reserved.